Aspen, CO

9:15 AM MDT on July 20, 2017 (GMT -0600)
Aspen-Pitkin County / Sardy Field

Weather History for KASE - October, 2013

Change the Weather History Date:

Monday, October 14, 2013

  Actual Average Record
Temperature  
Mean Temperature 37 °F 43 °F  
Max Temperature 43 °F 57 °F 76 °F (1989)
Min Temperature 31 °F 29 °F 16 °F (1986)
Degree Days  
Heating Degree Days 28 22  
Month to date heating degree days 316 276  
Since 1 July heating degree days 736 823  
Cooling Degree Days 0 0  
Month to date cooling degree days 0 0  
Year to date cooling degree days 69 39  
Moisture  
Dew Point 34 °F    
Average Humidity 87    
Maximum Humidity 100    
Minimum Humidity 73    
Precipitation  
Precipitation 0.00 in 0.04 in 0.50 in (1985)
Month to date precipitation 0.40 0.71  
Year to date precipitation 13.04 13.99  
Sea Level Pressure  
Sea Level Pressure 30.00 in    
Wind  
Wind Speed 5 mph (NNW)    
Max Wind Speed 20 mph    
Max Gust Speed 26 mph    
Visibility 8 miles    
Events Rain , Snow , Thunderstorm    
T = Trace of Precipitation, MM = Missing Value Source: NWS Daily Summary

Daily Weather History Graph

Daily Weather History Graph

Search for Another Location

Airport or City:

Trip Planner

Search our weather history database for the weather conditions in past years. The results will help you decide how hot, cold, wet, or windy it might be!

Date:

Astronomy

Oct. 14, 2013 Rise Set
Actual Time 7:16 AM MDT 6:29 PM MDT
Civil Twilight 6:49 AM MDT 6:56 PM MDT
Nautical Twilight 6:18 AM MDT 7:27 PM MDT
Astronomical Twilight 5:47 AM MDT 7:58 PM MDT
Moon 3:59 PM MDT (10/14) 2:37 AM MDT (10/14)
Length of Visible Light 12h 07m
Length of Day
11h 13m
Waxing Gibbous, 80% of the Moon is Illuminated
Oct 14
Waxing Gibbous
Oct 18
Full
Oct 26
Last Quarter
Nov 3
New
Nov 9
First Quarter

Hourly Weather History & Observations

Time (MDT) Temp. Windchill Dew Point Humidity Pressure Visibility Wind Dir Wind Speed Gust Speed Precip Events Conditions
12:09 AM 41.0 °F 36.4 °F 35.6 °F 81% 29.98 in 10.0 mi NNW 6.9 mph - 0.00 in   Mostly Cloudy
12:53 AM 41.0 °F 37.1 °F 37.9 °F 89% 29.75 in 10.0 mi NNW 5.8 mph - 0.00 in Rain Light Rain
1:24 AM 42.8 °F 37.0 °F 35.6 °F 76% 30.03 in 5.0 mi SSE 10.4 mph 18.4 mph 0.00 in Rain , Thunderstorm Rain
1:43 AM 41.0 °F 37.1 °F 37.4 °F 87% 30.02 in 10.0 mi ESE 5.8 mph - N/A Rain Light Rain
1:53 AM 39.9 °F - 37.9 °F 93% 29.74 in 10.0 mi Calm Calm - N/A Rain Light Rain
2:01 AM 39.2 °F - 37.4 °F 93% 30.02 in 10.0 mi Calm Calm - N/A   Overcast
2:53 AM 39.9 °F 33.4 °F 36.0 °F 86% 29.76 in 10.0 mi South 10.4 mph - N/A Rain Light Rain
3:53 AM 37.0 °F 34.5 °F 35.1 °F 93% 29.74 in 10.0 mi North 3.5 mph - N/A   Mostly Cloudy
4:14 AM 35.6 °F 30.7 °F 35.6 °F 100% 29.97 in 10.0 mi North 5.8 mph - N/A   Mostly Cloudy
4:27 AM 37.4 °F 33.8 °F 35.6 °F 93% 29.97 in 10.0 mi North 4.6 mph - N/A   Mostly Cloudy
4:36 AM 37.4 °F 34.9 °F 35.6 °F 93% 29.96 in 10.0 mi NNW 3.5 mph - N/A   Overcast
4:53 AM 37.0 °F 29.8 °F 36.0 °F 96% 29.74 in 10.0 mi NNW 10.4 mph - N/A   Overcast
5:11 AM 35.6 °F 28.0 °F 33.8 °F 93% 30.01 in 4.0 mi NNW 10.4 mph 26.5 mph N/A Rain Rain
5:14 AM 33.8 °F 25.8 °F 32.0 °F 93% 30.02 in 2.5 mi NNW 10.4 mph 26.5 mph N/A Snow Light Snow
5:17 AM 32.0 °F 23.6 °F 32.0 °F 100% 30.02 in 1.8 mi North 10.4 mph - N/A Snow Light Snow
5:26 AM 32.0 °F 23.6 °F 32.0 °F 100% 30.02 in 0.8 mi North 10.4 mph 17.3 mph N/A Snow Light Snow
5:50 AM 30.2 °F 21.3 °F 30.2 °F 100% 30.01 in 1.2 mi North 10.4 mph - N/A Snow Light Snow
5:53 AM 30.9 °F 22.2 °F 30.9 °F 100% 29.83 in 1.2 mi North 10.4 mph - N/A Snow Light Snow
6:05 AM 30.2 °F 23.4 °F 30.2 °F 100% 30.02 in 3.0 mi North 6.9 mph - N/A Snow Light Snow
6:29 AM 32.0 °F 26.4 °F 32.0 °F 100% 30.02 in 10.0 mi WSW 5.8 mph - N/A   Overcast
6:53 AM 32.0 °F 26.4 °F 32.0 °F 100% 29.86 in 10.0 mi SSW 5.8 mph - N/A   Overcast
7:53 AM 32.0 °F 28.7 °F 32.0 °F 100% 29.87 in 10.0 mi WSW 3.5 mph - N/A   Mostly Cloudy
8:53 AM 34.0 °F 29.8 °F 33.1 °F 96% 29.88 in 10.0 mi North 4.6 mph - N/A   Overcast
9:53 AM 35.1 °F - 34.0 °F 96% 29.92 in 10.0 mi Calm Calm - N/A   Mostly Cloudy
10:53 AM 36.0 °F 31.1 °F 33.1 °F 89% 29.94 in 10.0 mi NNE 5.8 mph - N/A Rain Light Rain
11:53 AM 39.0 °F 34.8 °F 30.9 °F 73% 29.92 in 10.0 mi North 5.8 mph - N/A   Mostly Cloudy
12:53 PM 41.0 °F 36.4 °F 33.1 °F 73% 29.91 in 10.0 mi NNW 6.9 mph - N/A   Mostly Cloudy
1:21 PM 39.2 °F 34.2 °F 33.8 °F 81% 30.07 in 3.0 mi NNW 6.9 mph - N/A Rain Light Rain
1:53 PM 35.1 °F 27.4 °F 34.0 °F 96% 29.94 in 6.0 mi North 10.4 mph - N/A Snow Light Snow
2:53 PM 37.9 °F 30.9 °F 34.0 °F 86% 29.94 in 6.0 mi North 10.4 mph - N/A Snow Light Snow
3:24 PM 33.8 °F 24.8 °F 33.8 °F 100% 30.11 in 1.0 mi NNW 12.7 mph 20.7 mph N/A Snow Snow
3:53 PM 32.0 °F 27.5 °F 32.0 °F 100% 30.03 in 4.0 mi North 4.6 mph - N/A Snow Light Snow
4:53 PM 36.0 °F 32.1 °F 34.0 °F 93% 30.02 in 10.0 mi North 4.6 mph - N/A   Mostly Cloudy
5:53 PM 36.0 °F 31.1 °F 33.1 °F 89% 30.07 in 10.0 mi NNW 5.8 mph - N/A   Overcast
6:53 PM 34.0 °F - 33.1 °F 96% 30.10 in 10.0 mi Calm Calm - N/A   Overcast
7:53 PM 34.0 °F - 33.1 °F 96% 30.10 in 10.0 mi Calm Calm - N/A   Overcast
8:38 PM 35.6 °F 32.8 °F 33.8 °F 93% 30.18 in 10.0 mi North 3.5 mph - N/A   Overcast
8:53 PM 34.0 °F - 34.0 °F 100% 30.10 in 10.0 mi Calm Calm - N/A   Overcast
9:04 PM 33.8 °F - 33.8 °F 100% 30.19 in 10.0 mi Calm Calm - N/A   Overcast
9:51 PM 33.8 °F - 32.0 °F 93% 30.20 in 10.0 mi Calm Calm - N/A   Overcast
9:53 PM 34.0 °F - 33.1 °F 96% 30.10 in 10.0 mi Calm Calm - N/A   Overcast
10:00 PM 33.8 °F - 33.8 °F 100% 30.20 in 10.0 mi Calm Calm - N/A   Overcast
10:34 PM 33.8 °F - 33.8 °F 100% 30.20 in 10.0 mi Calm Calm - N/A   Overcast
10:53 PM 34.0 °F - 33.1 °F 96% 30.10 in 10.0 mi Calm Calm - N/A   Overcast
11:14 PM 33.8 °F - 33.8 °F 100% 30.20 in 10.0 mi Calm Calm - N/A   Overcast
11:53 PM 33.1 °F - 33.1 °F 100% 30.09 in 7.0 mi Calm Calm - N/A Snow Light Snow